Date,TemperatureHighF,TemperatureAvgF,TemperatureLowF,DewpointHighF,DewpointAvgF,DewpointLowF,HumidityHigh,HumidityAvg,HumidityLow,PressureMaxIn,PressureMinIn,WindSpeedMaxMPH,WindSpeedAvgMPH,GustSpeedMaxMPH,PrecipitationSumIn
2013-2-1,67.7,50.8,39.3,42.0,-56.7,-202.0,42,12,3,30.21,30.11,15,7,0,0.00
2013-2-2,59.0,49.0,43.8,21.0,-86.8,-202.0,23,2,2,30.31,30.22,8,3,0,0.00
2013-2-3,62.2,51.6,43.8,35.0,-60.8,-202.0,36,9,2,30.26,30.14,15,2,0,0.00
2013-2-4,55.7,47.3,39.6,-99.9,-99.9,-202.0,0,0,100,30.17,30.08,9,3,0,0.00
2013-2-5,59.8,50.4,42.9,21.0,-81.0,-202.0,22,2,2,30.19,30.07,19,3,0,0.00
2013-2-6,60.5,46.9,36.6,28.0,-67.9,-202.0,30,6,2,30.21,30.13,16,5,0,0.00
2013-2-7,59.3,48.3,41.5,35.0,-77.4,-202.0,41,6,13,30.14,30.00,11,3,0,0.27
2013-2-8,59.9,45.9,35.6,31.0,-62.0,-202.0,36,8,2,30.04,29.96,18,4,0,0.01
2013-2-9,60.5,45.6,33.8,33.0,-51.0,-202.0,47,12,7,30.09,30.02,13,5,0,0.00
2013-2-10,60.3,45.4,34.4,36.0,-64.0,-202.0,40,9,2,30.11,30.03,13,7,0,0.00
2013-2-11,61.4,47.3,36.8,36.0,-59.3,-202.0,41,10,2,30.21,30.09,15,7,0,0.00
2013-2-12,59.0,45.6,36.1,11.0,-88.2,-202.0,15,1,1,30.38,30.21,10,5,0,0.00
2013-2-13,62.6,47.8,36.4,29.0,-73.7,-202.0,31,4,1,30.35,30.21,12,5,0,0.00
2013-2-14,62.0,50.1,41.0,26.0,-75.1,-202.0,25,3,3,30.25,30.17,13,5,0,0.00
2013-2-15,72.4,53.7,42.1,40.0,-51.4,-202.0,45,11,9,30.27,30.19,16,8,0,0.00
2013-2-16,63.1,50.7,42.5,35.0,-64.3,-202.0,37,7,2,30.24,30.07,19,6,0,0.00
2013-2-17,62.9,50.2,41.2,39.0,-44.6,-202.0,42,15,8,30.07,29.97,11,2,0,0.00
2013-2-18,58.4,45.9,35.9,35.0,-68.7,-202.0,42,6,3,30.02,29.95,17,4,0,0.00
2013-2-19,53.9,45.1,38.7,31.0,-65.9,-202.0,43,7,2,29.97,29.77,20,3,0,0.13
2013-2-20,61.0,47.3,37.7,37.0,-36.2,-202.0,44,17,1,30.11,29.87,17,3,0,0.00
2013-2-21,60.9,49.5,41.0,37.0,-29.4,-202.0,42,19,4,30.19,30.10,18,3,0,0.00
2013-2-22,62.1,49.7,39.7,38.0,-35.8,-202.0,41,14,2,30.27,30.19,14,3,0,0.00
2013-2-23,58.2,49.3,42.9,34.0,-12.6,-202.0,44,24,9,30.31,30.19,17,3,0,0.00
2013-2-24,62.3,48.9,35.5,38.0,-25.1,-99.9,43,18,1,30.29,30.16,12,3,0,0.00
2013-2-25,64.3,50.4,41.7,41.0,-31.0,-202.0,43,16,1,30.29,30.19,17,3,0,0.00
2013-2-26,63.9,49.1,38.3,39.0,0.3,-202.0,45,28,4,30.23,30.16,12,4,0,0.00
2013-2-27,67.0,49.6,36.7,41.0,-52.0,-202.0,43,13,5,30.38,30.22,16,4,0,0.00
2013-2-28,65.4,54.8,47.8,21.0,-85.2,-202.0,19,2,3,30.47,30.37,8,2,0,0.00